Weather History for KADG - April, 2013

Change the Weather History Date:

Thursday, April 25, 2013

  Actual Average Record
Temperature  
Mean Temperature 41 °F -  
Max Temperature 51 °F 62 °F 88 °F (1990)
Min Temperature 32 °F 37 °F 25 °F (1967)
Degree Days  
Heating Degree Days 24    
Moisture  
Dew Point 31 °F    
Average Humidity 69    
Maximum Humidity 87    
Minimum Humidity 41    
Precipitation  
Precipitation 0.04 in - - ()
Sea Level Pressure  
Sea Level Pressure 30.22 in    
Wind  
Wind Speed 8 mph (West)    
Max Wind Speed 22 mph    
Max Gust Speed 26 mph    
Visibility 10 miles    
Events Rain    
Averages and records for this station are not official NWS values.
T = Trace of Precipitation, MM = Missing Value Source: NWS Daily Summary

Daily Weather History Graph

Daily Weather History Graph

Search for Another Location

Airport or City:

Trip Planner

Search our weather history database for the weather conditions in past years. The results will help you decide how hot, cold, wet, or windy it might be!

Date:

Astronomy

Apr. 25, 2013 Rise Set
Actual Time 6:40 AM EDT 8:28 PM EDT
Civil Twilight 6:10 AM EDT 8:58 PM EDT
Nautical Twilight 5:34 AM EDT 9:34 PM EDT
Astronomical Twilight 4:55 AM EDT 10:14 PM EDT
Moon 8:41 PM EDT 6:22 AM EDT
Length of Visible Light 14h 47m
Length of Day
13h 48m
Full, 100% of the Moon is Illuminated
Apr 25
Full
Apr 25
Full
May 2
Last Quarter
May 9
New
May 18
First Quarter

Hourly Weather History & Observations

Time (EDT) Temp. Windchill Dew Point Humidity Pressure Visibility Wind Dir Wind Speed Gust Speed Precip Events Conditions
12:53 AM 34.0 °F 29.8 °F 26.1 °F 73% 30.18 in 10.0 mi WSW 4.6 mph - N/A   Clear
1:53 AM 33.1 °F 28.7 °F 26.1 °F 75% 30.18 in 10.0 mi WSW 4.6 mph - N/A   Clear
2:53 AM 33.1 °F 28.7 °F 26.1 °F 75% 30.17 in 10.0 mi WSW 4.6 mph - N/A   Clear
3:53 AM 32.0 °F 28.7 °F 26.1 °F 79% 30.17 in 10.0 mi WSW 3.5 mph - N/A   Clear
4:53 AM 32.0 °F 27.5 °F 27.0 °F 82% 30.18 in 10.0 mi WSW 4.6 mph - N/A   Clear
5:53 AM 34.0 °F 27.2 °F 28.9 °F 82% 30.18 in 10.0 mi WSW 8.1 mph - N/A   Clear
6:53 AM 34.0 °F 26.6 °F 30.0 °F 85% 30.18 in 10.0 mi WSW 9.2 mph - N/A   Clear
7:53 AM 36.0 °F 28.5 °F 32.0 °F 86% 30.17 in 10.0 mi SW 10.4 mph - N/A   Clear
8:53 AM 39.9 °F 31.1 °F 33.1 °F 77% 30.17 in 10.0 mi SW 17.3 mph - N/A   Clear
9:53 AM 43.0 °F 34.8 °F 34.0 °F 71% 30.16 in 10.0 mi SW 18.4 mph 24.2 mph N/A   Mostly Cloudy
10:44 AM 42.8 °F 37.0 °F 33.8 °F 70% 30.14 in 10.0 mi WSW 10.4 mph - 0.00 in Rain Light Rain
10:53 AM 42.1 °F 35.2 °F 35.1 °F 76% 30.17 in 10.0 mi WSW 12.7 mph 20.7 mph 0.00 in   Overcast
11:53 AM 42.1 °F 37.1 °F 37.0 °F 82% 30.19 in 10.0 mi WSW 8.1 mph - 0.03 in Rain Light Rain
12:53 PM 45.0 °F 40.1 °F 37.0 °F 74% 30.19 in 10.0 mi West 9.2 mph 20.7 mph 0.00 in   Overcast
1:12 PM 48.2 °F - 37.4 °F 66% 30.16 in 10.0 mi West 12.7 mph 19.6 mph N/A   Mostly Cloudy
1:53 PM 39.0 °F 31.0 °F 35.1 °F 86% 30.23 in 8.0 mi WNW 13.8 mph 25.3 mph 0.01 in Rain Light Rain
2:01 PM 39.2 °F 31.6 °F 35.6 °F 87% 30.19 in 10.0 mi WNW 12.7 mph 20.7 mph 0.00 in Rain Light Rain
2:53 PM 48.0 °F - 35.1 °F 61% 30.21 in 10.0 mi WNW 21.9 mph 26.5 mph 0.00 in   Partly Cloudy
3:53 PM 48.9 °F - 35.1 °F 59% 30.22 in 10.0 mi WNW 15.0 mph 21.9 mph 0.00 in   Mostly Cloudy
4:53 PM 50.0 °F - 30.0 °F 46% 30.22 in 10.0 mi NW 15.0 mph 26.5 mph N/A   Partly Cloudy
5:53 PM 50.0 °F - 27.0 °F 41% 30.26 in 10.0 mi NW 13.8 mph 21.9 mph N/A   Partly Cloudy
6:53 PM 48.9 °F - 26.1 °F 41% 30.28 in 10.0 mi NW 12.7 mph 21.9 mph N/A   Clear
7:53 PM 46.9 °F - 26.1 °F 44% 30.31 in 10.0 mi NW 11.5 mph - N/A   Clear
8:53 PM 44.1 °F 40.8 °F 27.0 °F 51% 30.33 in 10.0 mi NW 5.8 mph - N/A   Clear
9:53 PM 41.0 °F - 27.0 °F 57% 30.36 in 10.0 mi Calm Calm - N/A   Clear
10:53 PM 37.9 °F - 28.9 °F 70% 30.38 in 10.0 mi Calm Calm - N/A   Clear
11:53 PM 36.0 °F - 28.0 °F 73% 30.39 in 10.0 mi Calm Calm - N/A   Clear